WB7UVH Weather Reports


Display with metric or nautical units.
time (UTC)temp
F
wind
direction
speed
MPH
gust
MPH
rain 1hr
in
rain 24hr
in
rain mn
in
humidity
%
barometer
mb
20260904114504 52 65 0.0 0.0 0.00 0.23 0.01 97 1016.1
20260904113003 52 44 0.0 0.0 0.00 0.23 0.01 97 1016.0
20260904111504 52 46 0.0 0.0 0.00 0.23 0.01 97 1015.9
20260904104504 52 46 0.0 0.0 0.00 0.23 0.01 97 1015.7
20260904103004 52 47 0.0 1.0 0.00 0.23 0.01 97 1015.6
20260904101504 52 323 0.0 0.0 0.00 0.23 0.01 97 1015.5
20260904100005 52 323 0.0 0.0 0.00 0.23 0.01 97 1015.5
20260904094504 52 315 0.0 0.0 0.00 0.23 0.01 97 1015.4
20260904090004 52 307 0.0 0.0 0.00 0.25 0.01 96 1015.3
20260904084504 53 302 0.0 0.0 0.00 0.26 0.01 96 1015.3
20260904081503 53 296 0.0 0.0 0.01 0.27 0.01 96 1015.2
20260904074503 54 296 0.0 0.0 0.02 0.28 0.01 96 1015.3
20260904073004 54 296 0.0 0.0 0.01 0.27 0.00 96 1015.4
20260904071504 54 296 0.0 0.0 0.01 0.28 0.00 96 1015.3
20260904064504 54 281 0.0 0.0 0.00 0.27 0.27 96 1015.5
20260904063004 54 281 0.0 0.0 0.00 0.27 0.27 96 1015.4
20260904061503 54 281 0.0 0.0 0.00 0.27 0.27 96 1015.3
20260904060004 54 281 0.0 0.0 0.00 0.27 0.27 96 1015.3
20260904051503 54 281 0.0 0.0 0.00 0.27 0.27 96 1015.2
20260904050004 54 281 0.0 0.0 0.00 0.27 0.27 96 1015.2
20260904044504 54 281 0.0 0.0 0.00 0.27 0.27 96 1015.2
20260904043003 54 281 0.0 0.0 0.00 0.27 0.27 96 1015.2
20260904034505 54 281 0.0 0.0 0.00 0.29 0.27 95 1015.1
20260904033004 54 281 0.0 0.0 0.00 0.29 0.27 95 1014.9
20260904031504 54 281 0.0 0.0 0.00 0.29 0.27 95 1014.8
20260904030005 55 281 0.0 0.0 0.00 0.29 0.27 95 1014.7
20260904024505 56 281 0.0 0.0 0.00 0.29 0.27 94 1014.7
20260904023005 56 281 0.0 0.0 0.00 0.29 0.27 94 1014.7
20260904021505 57 281 0.0 0.0 0.00 0.29 0.27 94 1014.7
20260904020004 57 281 0.0 0.0 0.00 0.29 0.27 94 1014.8
20260904014505 57 281 0.0 0.0 0.00 0.29 0.27 95 1014.8
20260904013004 57 281 0.0 0.0 0.00 0.30 0.27 94 1014.8
20260904010005 58 281 0.0 0.0 0.05 0.32 0.27 94 1015.0
20260904003005 58 293 0.0 0.0 0.05 0.41 0.27 92 1014.9
20260904001505 60 293 0.0 12.0 0.05 0.51 0.27 90 1015.0
20260904000005 60 252 0.0 0.0 0.00 0.48 0.22 87 1014.8
20260903233005 61 252 0.0 0.0 0.00 0.49 0.22 89 1014.4
20260903231504 61 252 0.0 0.0 0.00 0.50 0.22 87 1014.5
20260903230005 60 252 0.0 0.0 0.01 0.51 0.22 84 1014.7
20260903223005 59 252 0.0 0.0 0.01 0.52 0.22 92 1015.0
20260903221505 60 252 0.0 0.0 0.01 0.52 0.22 90 1015.0
20260903214505 61 252 0.0 0.0 0.00 0.52 0.21 87 1015.1
20260903213005 61 252 0.0 0.0 0.00 0.53 0.21 84 1015.1
20260903211504 60 252 0.0 0.0 0.00 0.54 0.21 92 1015.1
20260903210005 59 246 0.0 0.0 0.01 0.57 0.21 89 1015.2
20260903204504 59 246 0.0 0.0 0.03 0.62 0.21 93 1015.1
20260903203004 58 245 0.0 0.0 0.07 0.66 0.21 91 1015.3
20260903201505 59 244 0.0 0.0 0.07 0.69 0.21 90 1015.3
20260903194505 61 73 0.0 0.0 0.04 0.69 0.18 89 1015.4
20260903191504 61 55 0.0 0.0 0.00 0.69 0.14 86 1014.9
20260903184504 61 131 0.0 1.0 0.00 0.73 0.14 85 1015.0
20260903183005 61 80 0.0 0.0 0.00 0.79 0.14 87 1015.2
20260903181505 61 142 0.0 3.0 0.00 0.82 0.14 87 1015.1
20260903180004 59 350 0.0 0.0 0.00 0.83 0.14 90 1015.2
20260903173005 56 46 0.0 1.0 0.01 0.83 0.14 97 1015.4
20260903171505 55 174 0.0 3.0 0.02 0.84 0.14 96 1015.5
20260903170005 55 69 0.0 1.0 0.03 0.84 0.14 97 1015.4
20260903163005 55 50 0.0 0.0 0.05 0.83 0.13 96 1015.7
20260903161505 55 51 0.0 0.0 0.04 0.82 0.12 97 1015.7
20260903160005 55 355 0.0 0.0 0.04 0.81 0.11 97 1015.7
20260903154504 55 355 0.0 0.0 0.03 0.80 0.10 97 1015.7
20260903153005 55 355 0.0 0.0 0.02 0.78 0.08 96 1015.6
20260903151505 54 355 0.0 0.0 0.02 0.78 0.08 97 1015.5
20260903150004 54 355 0.0 0.0 0.01 0.77 0.07 96 1015.3
20260903143005 54 355 0.0 0.0 0.00 0.76 0.06 96 1015.2
20260903141505 54 355 0.0 0.0 0.00 0.76 0.06 96 1014.9
20260903140004 54 355 0.0 0.0 0.00 0.76 0.06 96 1014.8
20260903134504 54 355 0.0 0.0 0.00 0.76 0.06 96 1014.8
20260903131504 54 355 0.0 0.0 0.00 0.76 0.06 96 1014.8
20260903124505 54 355 0.0 0.0 0.00 0.76 0.06 96 1014.8
20260903121504 54 355 0.0 0.0 0.00 0.76 0.06 96 1014.9
20260903120005 54 355 0.0 0.0 0.00 0.76 0.06 95 1014.6